Weather History for Roswell, NM

Change the Weather History Date:

Wednesday, July 2, 2014

  Actual Average Record
Temperature  
Mean Temperature 75 °F 80 °F  
Max Temperature 84 °F 95 °F 109 °F (1989)
Min Temperature 66 °F 66 °F 55 °F (1895)
Degree Days  
Heating Degree Days 0 0  
Month to date heating degree days 0 0  
Since 1 June heating degree days 0 1  
Since 1 July heating degree days 0 0  
Cooling Degree Days 10 15  
Month to date cooling degree days 26 30  
Year to date cooling degree days 760 652  
Since 1 June cooling degree days 506 427  
Growing Degree Days 25 (Base 50)    
Moisture  
Dew Point 60 °F    
Average Humidity 62    
Maximum Humidity 87    
Minimum Humidity 37    
Precipitation  
Precipitation T in 0.08 in 1.10 in (1914)
Month to date precipitation 0.10 0.16  
Year to date precipitation 6.39 5.06  
Sea Level Pressure  
Sea Level Pressure 29.99 in    
Wind  
Wind Speed 9 mph (ENE)    
Max Wind Speed 25 mph    
Max Gust Speed 32 mph    
Visibility 10 miles    
Events Rain , Thunderstorm    
T = Trace of Precipitation, MM = Missing Value Source: NWS Daily Summary

Daily Weather History Graph

Daily Weather History Graph

Search for Another Location

Airport:

Trip Planner

Search our weather history database for the weather conditions in past years. The results will help you decide how hot, cold, wet, or windy it might be!

Date:

Astronomy

Jul. 02, 2014 Rise Set
Actual Time 5:52 AM MDT 8:11 PM MDT
Civil Twilight 5:24 AM MDT 8:40 PM MDT
Nautical Twilight 4:48 AM MDT 9:15 PM MDT
Astronomical Twilight 4:10 AM MDT 9:53 PM MDT
Moon 10:42 AM MDT (7/2) 11:23 PM MDT (7/2)
Length of Visible Light 15h 16m
Length of Day
14h 18m
Waxing Crescent, 25% of the Moon is Illuminated
Jul 2
Waxing Crescent
Jul 5
First Quarter
Jul 12
Full
Jul 18
Last Quarter
Jul 26
New

Hourly Weather History & Observations

Time (MDT) Temp. Heat Index Dew Point Humidity Pressure Visibility Wind Dir Wind Speed Gust Speed Precip Events Conditions
12:51 AM 73.0 °F - 69.1 °F 87% 29.90 in 10.0 mi SE 17.3 mph - 0.10 in Rain , Thunderstorm Light Thunderstorms and Rain
1:37 AM 73.0 °F - 66.9 °F 81% 30.06 in 10.0 mi SE 12.7 mph 20.7 mph 0.00 in Thunderstorm Mostly Cloudy
1:51 AM 73.0 °F - 68.0 °F 84% 29.85 in 10.0 mi SE 12.7 mph - 0.00 in   Mostly Cloudy
2:51 AM 71.1 °F - 64.9 °F 81% 29.88 in 10.0 mi South 10.4 mph - 0.00 in Rain Light Rain
3:41 AM 71.1 °F - 63.0 °F 75% 30.10 in 10.0 mi NW 11.5 mph - 0.00 in Rain Light Rain
3:51 AM 70.0 °F - 60.1 °F 71% 29.89 in 10.0 mi NW 12.7 mph - 0.00 in   Partly Cloudy
4:51 AM 68.0 °F - 59.0 °F 73% 29.96 in 10.0 mi North 13.8 mph - N/A   Clear
5:51 AM 68.0 °F - 59.0 °F 73% 29.95 in 10.0 mi NNE 17.3 mph - N/A   Clear
6:51 AM 66.9 °F - 59.0 °F 76% 29.99 in 10.0 mi NE 17.3 mph - N/A   Scattered Clouds
7:51 AM 66.9 °F - 59.0 °F 76% 30.00 in 10.0 mi NE 13.8 mph 21.9 mph N/A   Scattered Clouds
9:51 AM 68.0 °F - 60.1 °F 76% 30.01 in 10.0 mi Calm Calm - N/A   Clear
10:51 AM 69.1 °F - 60.1 °F 73% 30.02 in 10.0 mi NW 6.9 mph - N/A   Partly Cloudy
12:51 PM 73.9 °F - 59.0 °F 59% 30.03 in 10.0 mi NE 3.5 mph - N/A   Partly Cloudy
1:51 PM 73.9 °F - 59.0 °F 59% 30.02 in 10.0 mi Calm Calm - N/A   Clear
2:51 PM 77.0 °F - 59.0 °F 54% 30.01 in 10.0 mi NNE 5.8 mph - N/A   Clear
3:51 PM 80.1 °F 80.4 °F 57.0 °F 45% 29.98 in 10.0 mi Calm Calm - N/A   Clear
4:51 PM 82.0 °F 81.3 °F 54.0 °F 38% 29.94 in 10.0 mi NE 4.6 mph - N/A   Clear
5:51 PM 80.1 °F 81.1 °F 61.0 °F 52% 29.96 in 10.0 mi East 25.3 mph 29.9 mph N/A   Partly Cloudy
6:51 PM 78.1 °F - 57.9 °F 50% 29.95 in 10.0 mi East 15.0 mph - N/A   Clear
8:51 PM 72.0 °F - 59.0 °F 64% 30.01 in 10.0 mi ESE 9.2 mph - N/A   Partly Cloudy
9:51 PM 70.0 °F - 60.1 °F 71% 30.05 in 10.0 mi SE 6.9 mph - N/A   Clear
10:51 PM 66.9 °F - 59.0 °F 76% 30.07 in 10.0 mi SSW 3.5 mph - N/A   Clear
11:51 PM 68.0 °F - 59.0 °F 73% 30.07 in 10.0 mi Calm Calm - N/A   Scattered Clouds